Overview Statistics Trail Chart Weather Telemetry Raw packets
 

This is the latest recevied weather packets stored in our database for station/object 4S6DRJ-13. If no packets are shown the sender has not sent any weather packets the latest 10 day(s).

<< 407 408 409 410 411 412 413 >>
Time Temp. Humidity Pressure Rain* Wind** Luminosity Snow
1787844930 27.78° C 87% 1010.7 hPa 0 mm 0 m/s 0 W/m² -
1787844870 27.78° C 87% 1010.8 hPa 0 mm 0 m/s 0 W/m² -
1787844808 27.78° C 87% 1010.8 hPa 0 mm 0.45 m/s, 236° 0 W/m² -
1787844748 27.78° C 87% 1010.6 hPa 0 mm 0.89 m/s, 211° 0 W/m² -
1787844686 27.78° C 87% 1010.6 hPa 0 mm 1.79 m/s, 252° 0 W/m² -
1787844625 27.78° C 87% 1010.8 hPa 0 mm 0.45 m/s, 248° 0 W/m² -
1787844569 27.78° C 86% 1010.6 hPa 0 mm 1.34 m/s, 217° 0 W/m² -
1787844504 27.78° C 86% 1010.6 hPa 0 mm 0 m/s 0 W/m² -
1787844443 27.78° C 86% 1010.8 hPa 0 mm 0.45 m/s, 311° 0 W/m² -
1787844381 27.78° C 86% 1010.8 hPa 0 mm 0.89 m/s, 194° 0 W/m² -
1787844320 27.78° C 86% 1010.6 hPa 0 mm 0.45 m/s, 210° 0 W/m² -
1787844259 27.78° C 86% 1010.6 hPa 0 mm 1.34 m/s, 218° 0 W/m² -
1787844198 27.78° C 86% 1010.7 hPa 0 mm 0.45 m/s, 234° 0 W/m² -
1787844137 27.78° C 86% 1010.7 hPa 0 mm 0.89 m/s, 219° 0 W/m² -
1787844077 27.78° C 86% 1010.6 hPa 0 mm 0.45 m/s, 223° 0 W/m² -
1787844015 27.78° C 86% 1010.7 hPa 0 mm 0 m/s 0 W/m² -
1787843954 27.78° C 86% 1010.7 hPa 0 mm 0.45 m/s, 225° 0 W/m² -
1787843893 27.78° C 86% 1010.6 hPa 0 mm 0.89 m/s, 186° 0 W/m² -
1787843833 27.78° C 86% 1010.8 hPa 0 mm 0.45 m/s, 219° 0 W/m² -
1787843771 27.78° C 86% 1010.5 hPa 0 mm 0.89 m/s, 266° 0 W/m² -
1787843710 27.78° C 86% 1010.5 hPa 0 mm 0 m/s 0 W/m² -
1787843649 27.78° C 86% 1010.5 hPa 0 mm 0 m/s 0 W/m² -
1787843588 27.78° C 86% 1010.4 hPa 0 mm 0.45 m/s, 233° 0 W/m² -
1787843527 27.78° C 86% 1010.6 hPa 0 mm 0.89 m/s, 205° 0 W/m² -
1787843466 27.78° C 86% 1010.5 hPa 0 mm 0.89 m/s, 233° 0 W/m² -

* Rain latest hour (hover to see other rain measurements)
** Current wind speed in m/s (hover to see current wind gust speed)